Showing default

ICEYE-X73, 68496

Orbit data source: Space-Track

ICEYE-X73, 68496 is a Portuguese payload satellite in SSO that was launched on Mon, 30 Mar 2026 UTC via an FALCON 9 launch vehicle from the Air Force Western Test Range (AFWTR). Payload-class satellites include a variety of spacecraft equipped with specific instruments for various scientific and technological missions. These include communications satellites like Starlink; space stations such as the ISS; scientific satellites like the Hubble; Earth observation satellites from companies like Planet Labs, Umbra, and HawkEye 360; GPS; miniature CubeSats for education and research; and military/defense satellites.

Loading next visibility...
Identifier
68496, 2026-067CJ
Orbit
SSO
Country
Flag of PTPT / POR
Related business
Manufacturer
ICEYE
Mission
Operational Commercial Radar Imaging
Bus & Motor
ICEYE, Unknown motor
Mass
120 kg wet, 120 kg dry
Launch date (UTC)
2026-03-30 (5 months ago)
Launch vehicle
FALCON 9
Launch site
Air Force Western Test Range (AFWTR)
Object type
Payload
Rocket body
Debris
Shape & HBR
Box + 1 Pan, 2.4 m
Radar Cross Section
0.776 m², Medium (>0.1 m² and < 1m²)

Expand to show TLE details & history
Last TLE update: 11 hours ago

TLE from 11 hours ago
0 ICEYE-X73
1 68496U 26067CJ  26249.42885654  .00001534  00000-0  15472-3 0  9994
2 68496  97.7688 206.5889 0003119  59.7012 300.4515 14.92542695 23848
Epoch: 2026-09-06T10:17Z
TLE epoch observation values (Epoch: 2026-09-06T10:17:33.205Z)
Latitude
-0.00004°
Longitude
66.67644°
Altitude
591.952 km
Speed
7.565 km/s
True Right ascension
13h 46m 21s
True Declination
0° 00' 00"
Sunlit
Object was in daylight at epoch
Visualization orbit readout
Latitude
Unknown
Longitude
Unknown
Altitude
Unknown
Speed
Unknown
Apparent Right ascension
Unknown
Apparent Declination
Unknown
Sunlit
N/A
Visualization observer readout
Local Sidereal Time
12:52:27
Azimuth
Unknown
Elevation
Unknown
Doppler factor
Unknown
Orbital elements
Apogee altitude
589.201 km
Perigee altitude
584.856 km
Semi-major axis
6,965.166 km
Eccentricity
0.00031
Inclination
97.7688°
RAAN
206.5889°
Arg. of periapsis
59.7012°
True anomaly
300.42068°
Mean anomaly
300.4515°
Eccentric anomaly
300.43609°
Mean motion
3.73376 °/min
Orbital period
96.42 mins
BSTAR
0.00015472
Loading maneuver chart data...
Computing Atmospheric mass density...
Loading historical data...
Loading historical data...
Loading historical data...
Loading historical data...
Loading historical data...
Loading historical data...
Loading historical data...

Documentation

Showing up to 5 results
|